Regional Weather Roundup
Issued by NWS

Home | Current Version | Previous Version | Text Only | Print | Product List | Glossary On
Versions: 1 2 3 4 5 6 7 8 9 10 11 12 13 14 15 16 17 18 19 20 21 22 23 24 25 26 27 28 29 30 31 32 33 34 35 36 37 38 39 40 41 42 43 44 45 46 47 48 49 50
000
ASUS43 KDTX 270210
RWRMI
MICHIGAN HOURLY REGIONAL WEATHER ROUNDUP
NATIONAL WEATHER SERVICE DETROIT/PONTIAC MI
1000 PM EDT THU MAR 26 2015

NOTE: "FAIR" INDICATES FEW OR NO CLOUDS BELOW 12,000 FEET WITH NO
SIGNIFICANT WEATHER AND/OR OBSTRUCTION TO VISIBILITY.

MIZ047>049-052>055-059>063-066>070-074>076-081>083-270300-
SOUTHEAST LOWER MICHIGAN

CITY           SKY/WX    TMP DP  RH WIND       PRES   REMARKS
ADRIAN         CLOUDY    36  23  59 NW12G20   29.95R
ALMA           CLOUDY    30  21  69 NW8G17    29.97R
ANN ARBOR      CLOUDY    36  25  64 NW8       29.93R
BAD AXE        FLURRIES  30  24  79 NW13      29.92R
DETROIT CITY   CLOUDY    40  23  50 NW13      29.92R
DETROIT        CLOUDY    38  24  57 W12       29.93R
FLINT          CLOUDY    35  23  61 NW15G23   29.93R
GROSSE ILE     CLOUDY    39  27  60 W12       29.91S
HILLSDALE      CLOUDY    34  22  59 NW12G20   29.93S
HOWELL         CLOUDY    34  25  69 NW12      29.93R

CITY           SKY/WX    TMP DP  RH WIND       PRES   REMARKS
JACKSON        CLOUDY    33  24  69 NW9       29.94R
LAMBERTVILLE   CLOUDY    37  25  60 NW5       29.94S
LANSING        CLOUDY    32  22  66 NW10      29.96R
LAPEER         NOT AVBL
MASON          CLOUDY    33  23  68 NW13      29.94S
MONROE         CLOUDY    37  25  60 NW10      29.92S
MT. CLEMENS    CLOUDY    37  25  60 NW10      29.89R
PONTIAC        FLURRIES  34  24  67 NW15      29.90R
PORT HOPE        N/A     31  24  75 NW15      29.89R
PORT HURON     CLOUDY    36  27  69 W5        29.91R
TRI CITIES     CLOUDY    30  21  69 N15       29.96R
YPSILANTI      CLOUDY    39  24  55 NW13      29.93R
$$
MIZ043>046-050>051-056>058-064>065-071>073-077>080-270300-
SOUTHWEST LOWER MICHIGAN

CITY           SKY/WX    TMP DP  RH WIND       PRES   REMARKS
BATTLE CREEK   CLOUDY    33  23  66 NW13      29.97R
BENTON HARBOR  CLOUDY    31  28  89 VRB5      30.02R
BIG RAPIDS     MOCLDY    26  18  73 N6        29.98R
COLDWATER      CLOUDY    33  23  67 NW7       29.97R
HOLLAND        CLOUDY    32  24  72 NW8       30.01R
GRAND RAPIDS   FLURRIES  30  21  69 NW9       29.99R
KALAMAZOO      CLOUDY    33  23  66 NW10      29.99R
MARSHALL       CLOUDY    32  23  69 W8        29.95S
MUSKEGON       FLURRIES  30  23  75 N10       30.03R
$$
MIZ016>042-270300-
NORTHERN LOWER MICHIGAN

CITY           SKY/WX    TMP DP  RH WIND       PRES   REMARKS
ALPENA         CLOUDY    24  17  74 NW9G21    29.94R
BEAVER ISLAND  CLOUDY    19  13  77 NW10G23   30.05R
BELLAIRE       FLURRIES  20  14  78 NW8       30.05R
CADILLAC       FLURRIES  19  14  79 NW12G17   29.97R
CHARLEVOIX     CLOUDY    20  14  77 NW14G24   30.07R
FRANKFORT      FLURRIES  25  13  58 N10G20    30.08R
GAYLORD        LGT SNOW  17  13  84 NW12G20   29.95R FOG
GRAYLING       FLURRIES  19  13  76 NW10G18   29.97R
HARBOR SPRINGS LGT SNOW  20  15  81 W7        30.01R
HOUGHTON LAKE  CLOUDY    20  12  71 NW13G23   29.97R
MANISTEE       PTCLDY    23  12  63 N14G21    30.07R
OSCODA         CLOUDY    29  19  67 NW10G21   29.92R
PELLSTON       LGT SNOW  20  15  81 NW15G23   30.01R
TRAVERSE CITY  LGT SNOW  21  15  78 NW14G21   30.05R
$$
MIZ007>008-015-270300-
EASTERN UPPER MICHIGAN

CITY           SKY/WX    TMP DP  RH WIND       PRES   REMARKS
KINROSS        CLOUDY    19  19 100 NW20      29.95R
MACKINAC ISLAN LGT SNOW  21  15  77 NW14G24   29.98R
NEWBERRY       LGT SNOW  17  15  92 NW10G17   30.02R
S. S. MARIE    CLOUDY    20  12  71 N12G18    29.97R
$$
MIZ004>006-011>014-085-270300-
CENTRAL UPPER MICHIGAN

CITY           SKY/WX    TMP DP  RH WIND       PRES   REMARKS
MANISTIQUE     FLURRIES  18  11  76 NW16      30.07R
ESCANABA       CLOUDY    19   3  49 NW10G23   30.11S
MENOMINEE      CLOUDY    23   9  54 N9G18     30.11R
$$
MIZ001>003-009>011-084-270300-
WESTERN UPPER MICHIGAN

CITY           SKY/WX    TMP DP  RH WIND       PRES   REMARKS
IRON MOUNTAIN  PTCLDY    16   3  56 NW7       30.09R
HOUGHTON       PTCLDY    12   5  73 N6        30.12R
COPPER HARBOR    N/A     16   5  62 NE12      30.15R
IRONWOOD       CLOUDY    21   7  53 N10       30.10S
$$

ABBREVIATIONS USED IN REMARKS
   TC - TEMPERATURE IN CELSIUS
  WCI - WIND CHILL INDEX
   HX - HEAT INDEX
  VSB - VISIBILITY




USA.gov is the U.S. government's official web portal to all federal, state and local government web resources and services.